Location: Newark
(45.8667°N, 9.7333°E)
Time: 20:55:41
(UTC+00:00)

Vanguard 3 - Pass Details

Date: 26 January 2020
Orbit: 508 x 3263 km, 33.3° (Epoch: 25 February)

Event Time Altitude Azimuth Distance (km) Brightness Sun altitude
Rises 19:02:43 0° 259° (W) 7,213 13.1 -28.7°
Reaches altitude 10° 19:07:48 10° 256° (WSW) 6,197 12.5 -29.6°
Maximum altitude 19:26:06 52° 188° (S) 3,222 10.0 -32.8°
Enters shadow 19:31:14 40° 144° (SE) 3,272 9.8 -33.6°
Drops below altitude 10° 19:38:46 10° 117° (ESE) 4,425 - -34.9°
Sets 19:41:44 0° 112° (ESE) 5,102 - -35.4°
